Hourly Weather Dzierzazna

Today, 16 May, Sunday

Time Temperature Precipitation Wind Pressure Humidity
00:00 +10°C° 0.3 mm 2 mps 751 mmHg 94%
01:00 +10°C° 0 mm 2 mps 751 mmHg 96%
02:00 +9°C° 0.2 mm 2 mps 751 mmHg 96%
03:00 +9°C° 0.2 mm 2 mps 751 mmHg 96%
04:00 +9°C° 0.2 mm 2 mps 751 mmHg 97%
05:00 +10°C° 0.7 mm 2 mps 751 mmHg 95%
06:00 +10°C° 0.7 mm 2 mps 751 mmHg 93%
07:00 +12°C° 0 mm 2 mps 751 mmHg 91%
08:00 +12°C° 0.4 mm 3 mps 751 mmHg 86%
09:00 +13°C° 0.4 mm 3 mps 751 mmHg 81%
10:00 +14°C° 0.4 mm 4 mps 751 mmHg 76%
11:00 +14°C° 0.4 mm 4 mps 751 mmHg 75%
12:00 +14°C° 0.4 mm 4 mps 751 mmHg 75%
13:00 +14°C° 0.4 mm 4 mps 751 mmHg 75%
14:00 +15°C° 0.3 mm 4 mps 751 mmHg 71%
15:00 +15°C° 0.3 mm 4 mps 750 mmHg 68%
16:00 +16°C° 0.3 mm 3 mps 750 mmHg 65%
17:00 +16°C° 0 mm 3 mps 750 mmHg 68%
18:00 +15°C° 0 mm 2 mps 750 mmHg 72%
19:00 +14°C° 0 mm 2 mps 750 mmHg 75%
20:00 +13°C° 0.1 mm 2 mps 750 mmHg 80%
21:00 +12°C° 0.1 mm 2 mps 750 mmHg 85%
22:00 +10°C° 0.1 mm 2 mps 750 mmHg 90%
23:00 +9°C° 0.1 mm 2 mps 750 mmHg 92%

Tomorrow, 17 May, Monday

Time Temperature Precipitation Wind Pressure Humidity
00:00 +9°C° 0.1 mm 2 mps 750 mmHg 93%
01:00 +8°C° 0.1 mm 2 mps 750 mmHg 95%
02:00 +8°C° 0 mm 2 mps 750 mmHg 95%
03:00 +8°C° 0 mm 2 mps 750 mmHg 95%
04:00 +8°C° 0 mm 2 mps 750 mmHg 95%
05:00 +9°C° 0.1 mm 2 mps 751 mmHg 92%
06:00 +10°C° 0.1 mm 2 mps 751 mmHg 89%
07:00 +12°C° 0.1 mm 2 mps 751 mmHg 86%
08:00 +12°C° 0.5 mm 2 mps 751 mmHg 88%
09:00 +12°C° 0.5 mm 1 mps 751 mmHg 90%
10:00 +12°C° 0.5 mm 1 mps 752 mmHg 92%
11:00 +13°C° 0.1 mm 1 mps 752 mmHg 86%
12:00 +14°C° 0.1 mm 1 mps 752 mmHg 81%
13:00 +15°C° 0.1 mm 1 mps 752 mmHg 76%
14:00 +15°C° 0 mm 1 mps 752 mmHg 72%
15:00 +16°C° 0 mm 1 mps 752 mmHg 67%
16:00 +18°C° 0 mm 1 mps 752 mmHg 63%
17:00 +16°C° 0.2 mm 1 mps 752 mmHg 69%
18:00 +15°C° 0.2 mm 2 mps 752 mmHg 76%
19:00 +14°C° 0.2 mm 2 mps 752 mmHg 83%
20:00 +13°C° 0 mm 2 mps 752 mmHg 86%
21:00 +12°C° 0 mm 2 mps 752 mmHg 88%
22:00 +10°C° 0 mm 2 mps 752 mmHg 91%
23:00 +10°C° 0 mm 3 mps 753 mmHg 93%

Day after tomorrow, 18 May, Tuesday

Time Temperature Precipitation Wind Pressure Humidity
00:00 +9°C° 0 mm 3 mps 753 mmHg 94%
01:00 +9°C° 0 mm 3 mps 753 mmHg 96%
02:00 +8°C° 0 mm 3 mps 753 mmHg 96%
03:00 +8°C° 0 mm 3 mps 753 mmHg 97%
04:00 +7°C° 0 mm 2 mps 753 mmHg 98%
05:00 +8°C° 0 mm 3 mps 754 mmHg 94%
06:00 +10°C° 0 mm 4 mps 754 mmHg 90%
07:00 +11°C° 0 mm 4 mps 754 mmHg 86%
08:00 +12°C° 0.2 mm 4 mps 754 mmHg 82%
09:00 +13°C° 0.2 mm 4 mps 754 mmHg 77%
10:00 +14°C° 0.2 mm 5 mps 755 mmHg 73%
11:00 +15°C° 0.3 mm 5 mps 755 mmHg 71%
12:00 +15°C° 0.3 mm 4 mps 755 mmHg 68%
13:00 +15°C° 0.3 mm 4 mps 755 mmHg 66%
14:00 +15°C° 0.2 mm 4 mps 755 mmHg 64%
15:00 +17°C° 0.2 mm 4 mps 755 mmHg 63%
16:00 +17°C° 0.2 mm 4 mps 755 mmHg 61%
17:00 +16°C° 0.2 mm 3 mps 755 mmHg 68%
18:00 +14°C° 0.2 mm 3 mps 756 mmHg 75%
19:00 +12°C° 0.2 mm 3 mps 756 mmHg 82%
20:00 +12°C° 0.1 mm 2 mps 756 mmHg 85%
21:00 +10°C° 0.1 mm 2 mps 757 mmHg 89%
22:00 +9°C° 0.1 mm 2 mps 757 mmHg 93%
23:00 +9°C° 0 mm 2 mps 757 mmHg 94%

19 May, Wednesday

Time Temperature Precipitation Wind Pressure Humidity
00:00 +8°C° 0 mm 2 mps 757 mmHg 95%
01:00 +8°C° 0 mm 2 mps 757 mmHg 96%
02:00 +8°C° 0 mm 2 mps 757 mmHg 96%
03:00 +7°C° 0 mm 2 mps 757 mmHg 97%
04:00 +7°C° 0 mm 2 mps 757 mmHg 98%
05:00 +10°C° 0.2 mm 2 mps 758 mmHg 88%
06:00 +10°C° 0.2 mm 3 mps 759 mmHg 91%
07:00 +9°C° 0.2 mm 3 mps 759 mmHg 94%
08:00 +10°C° 0.1 mm 2 mps 758 mmHg 89%
09:00 +10°C° 0.1 mm 2 mps 758 mmHg 87%
10:00 +12°C° 0.1 mm 2 mps 758 mmHg 86%
11:00 +13°C° 0.2 mm 5 mps 759 mmHg 70%
12:00 +14°C° 0.2 mm 4 mps 759 mmHg 63%
13:00 +15°C° 0.2 mm 4 mps 759 mmHg 57%
14:00 +10°C° 0.2 mm 3 mps 759 mmHg 92%
15:00 +10°C° 0.2 mm 3 mps 759 mmHg 89%
16:00 +10°C° 0.2 mm 3 mps 759 mmHg 87%
17:00 +10°C° 0 mm 2 mps 759 mmHg 87%
18:00 +10°C° 0 mm 2 mps 759 mmHg 87%
19:00 +10°C° 0 mm 2 mps 759 mmHg 87%
20:00 +10°C° 0 mm 2 mps 759 mmHg 89%
21:00 +9°C° 0 mm 2 mps 759 mmHg 91%
22:00 +8°C° 0 mm 2 mps 759 mmHg 93%
23:00 +7°C° 0 mm 2 mps 759 mmHg 94%

20 May, Thursday

Time Temperature Precipitation Wind Pressure Humidity
00:00 +7°C° 0 mm 2 mps 759 mmHg 94%
01:00 +7°C° 0 mm 2 mps 759 mmHg 95%
02:00 +6°C° 0 mm 2 mps 760 mmHg 95%
03:00 +6°C° 0 mm 2 mps 760 mmHg 95%
04:00 +6°C° 0 mm 2 mps 760 mmHg 95%
05:00 +7°C° 0 mm 2 mps 760 mmHg 90%
06:00 +9°C° 0 mm 2 mps 760 mmHg 85%
07:00 +10°C° 0 mm 3 mps 761 mmHg 79%
08:00 +12°C° 0.1 mm 3 mps 761 mmHg 72%
09:00 +13°C° 0.1 mm 4 mps 761 mmHg 65%
10:00 +14°C° 0.1 mm 5 mps 761 mmHg 57%
11:00 +15°C° 0.1 mm 5 mps 761 mmHg 54%
12:00 +15°C° 0.1 mm 6 mps 760 mmHg 51%
13:00 +16°C° 0.1 mm 6 mps 760 mmHg 48%
14:00 +15°C° 0.2 mm 6 mps 760 mmHg 51%
15:00 +15°C° 0.2 mm 6 mps 761 mmHg 54%
16:00 +14°C° 0.2 mm 6 mps 761 mmHg 57%
17:00 +13°C° 0.1 mm 6 mps 761 mmHg 63%
18:00 +12°C° 0.1 mm 5 mps 761 mmHg 70%
19:00 +11°C° 0.1 mm 4 mps 761 mmHg 77%
20:00 +10°C° 0 mm 4 mps 761 mmHg 82%
21:00 +8°C° 0 mm 3 mps 762 mmHg 87%
22:00 +7°C° 0 mm 3 mps 762 mmHg 92%
23:00 +7°C° 0 mm 3 mps 762 mmHg 92%

21 May, Friday

Time Temperature Precipitation Wind Pressure Humidity
00:00 +5°C° 0 mm 3 mps 762 mmHg 92%
01:00 +4°C° 0 mm 3 mps 762 mmHg 92%
02:00 +4°C° 0 mm 3 mps 762 mmHg 92%
03:00 +4°C° 0 mm 3 mps 762 mmHg 93%
04:00 +3°C° 0 mm 3 mps 762 mmHg 93%
05:00 +4°C° 0 mm 3 mps 762 mmHg 86%
06:00 +6°C° 0 mm 4 mps 762 mmHg 79%
07:00 +7°C° 0 mm 4 mps 761 mmHg 72%
08:00 +10°C° 0 mm 4 mps 761 mmHg 65%
09:00 +11°C° 0 mm 4 mps 761 mmHg 58%
10:00 +13°C° 0 mm 4 mps 761 mmHg 52%
11:00 +13°C° 0 mm 4 mps 760 mmHg 55%
12:00 +13°C° 0 mm 4 mps 760 mmHg 58%
13:00 +13°C° 0 mm 4 mps 760 mmHg 61%
14:00 +14°C° 0 mm 4 mps 759 mmHg 61%
15:00 +14°C° 0 mm 4 mps 759 mmHg 61%
16:00 +16°C° 0 mm 3 mps 759 mmHg 61%
17:00 +14°C° 0.3 mm 3 mps 758 mmHg 69%
18:00 +13°C° 0.3 mm 3 mps 758 mmHg 76%
19:00 +12°C° 0.3 mm 3 mps 758 mmHg 84%
20:00 +11°C° 0 mm 3 mps 758 mmHg 85%
21:00 +10°C° 0 mm 3 mps 759 mmHg 86%
22:00 +9°C° 0 mm 3 mps 759 mmHg 87%
23:00 +9°C° 0.1 mm 3 mps 758 mmHg 89%
Show more

We Need Your Consent

Meteoprog and our Service Providers may store and access personal data such as cookies, device identifiers or other similar technologies on your device and process such data to personalise content and ads, as well as provide social media features and to analyse the traffic.

  • Store and/or access information on your device

    Cookies, device identifiers or other information can be stored or accessed on your device for the purposes indicated above.

  • Personalised ads and content, ad and content measurement, audience insights, and products development

    Ads and content can be personalised based on a profile. More data can be added to better personalise ads and content. Ad and content performance can be measured. Insights about the audience who saw the ads and content can be derived. Such data can be used to develop or improve user’s experience, systems and software.

By clicking ‘I Agree’ you will allow the use of indicated cookies, device identifiers, web beacons or other similar technologies. Your settings can be changed in the browser on your device.

For certain purposes, legitimate interests may be relied on, rather than consent. You can read more about this in our Privacy and Cookie Policy.